DW6282 Weather Reports


Display with metric or nautical units.
time (UTC)temp
F
wind
direction
speed
MPH
gust
MPH
rain 1hr
in
rain 24hr
in
rain mn
in
humidity
%
barometer
mb
20260505060017 71 215 1.0 3.0 0.00 0.00 0.00 87 1009.1
20260505054517 71 143 1.0 4.0 0.00 0.00 0.00 87 1009.3
20260505053030 71 200 1.0 6.0 0.00 0.00 0.00 86 1009.3
20260505051532 72 210 1.0 7.0 0.00 0.00 0.00 86 1009.4
20260505041510 71 150 0.0 4.0 0.00 0.00 0.00 85 1009.8
20260505040009 71 202 1.0 3.0 0.00 0.00 0.00 85 1009.9
20260505034509 71 162 0.0 4.0 0.00 0.00 0.00 85 1010.2
20260505033008 71 199 2.0 6.0 0.00 0.00 0.00 84 1010.0
20260505031509 72 205 0.0 5.0 0.00 0.00 0.00 83 1010.0
20260505030007 72 199 1.0 4.0 0.00 0.00 0.00 83 1010.1
20260505024508 72 148 1.0 5.0 0.00 0.00 0.00 83 1010.1
20260505023011 72 155 1.0 6.0 0.00 0.00 0.00 82 1010.1
20260505021505 72 222 2.0 6.0 0.00 0.00 0.00 82 1009.9
20260505020005 73 190 2.0 6.0 0.00 0.00 0.00 81 1009.9
20260505014505 73 192 2.0 7.0 0.00 0.00 0.00 81 1009.7
20260505013004 73 180 1.0 7.0 0.00 0.00 0.00 80 1009.8
20260505011503 74 195 1.0 5.0 0.00 0.00 0.00 80 1009.7
20260505010005 74 194 2.0 5.0 0.00 0.00 0.00 80 1009.7
20260505004502 74 198 3.0 7.0 0.00 0.00 0.00 79 1009.5
20260505003003 75 211 3.0 10.0 0.00 0.00 0.00 78 1009.5
20260505001601 76 183 3.0 8.0 0.00 0.00 0.00 77 1009.5
20260505000100 77 103 3.0 9.0 0.00 0.00 0.00 76 1009.7
20260504234558 77 215 2.0 11.0 0.00 0.00 0.00 76 1009.7
20260504233057 78 203 3.0 11.0 0.00 0.00 0.00 75 1009.9
20260504231559 78 203 2.0 9.0 0.00 0.00 0.00 76 1010.0
20260504230054 77 210 5.0 11.0 0.00 0.00 0.00 76 1010.3
20260504224553 77 199 3.0 10.0 0.00 0.00 0.00 76 1010.3
20260504223059 77 174 2.0 7.0 0.00 0.00 0.00 76 1010.6
20260504221601 77 212 3.0 10.0 0.00 0.00 0.00 75 1010.7
20260504220048 77 175 4.0 8.0 0.00 0.00 0.00 75 1010.8
20260504214547 78 191 3.0 9.0 0.00 0.00 0.00 74 1010.9
20260504213059 79 174 4.0 11.0 0.00 0.00 0.00 73 1011.1
20260504211547 79 165 3.0 9.0 0.00 0.00 0.00 73 1011.1
20260504210041 79 210 2.0 9.0 0.00 0.00 0.00 72 1011.4
20260504204539 80 200 3.0 8.0 0.00 0.00 0.00 70 1011.6
20260504203047 81 162 3.0 9.0 0.00 0.00 0.00 69 1011.8
20260504201535 80 210 2.0 10.0 0.00 0.00 0.00 70 1011.9
20260504200034 82 206 2.0 7.0 0.00 0.00 0.00 69 1012.0
20260504194540 82 217 3.0 7.0 0.00 0.00 0.00 66 1012.2
20260504193030 82 204 3.0 9.0 0.00 0.00 0.00 67 1012.6
20260504191537 81 119 3.0 8.0 0.00 0.00 0.00 68 1012.5
20260504190028 81 198 3.0 9.0 0.00 0.00 0.00 67 1012.6
20260504184529 81 165 3.0 8.0 0.00 0.00 0.00 68 1012.7
20260504183025 81 206 4.0 8.0 0.00 0.00 0.00 67 1012.8
20260504181522 81 205 1.0 13.0 0.00 0.00 0.00 71 1013.2
20260504180020 81 200 3.0 11.0 0.00 0.00 0.00 67 1013.3
20260504174519 81 135 3.0 10.0 0.00 0.00 0.00 69 1013.4
20260504173018 80 190 2.0 11.0 0.00 0.00 0.00 70 1013.7
20260504171512 80 233 2.0 10.0 0.00 0.00 0.00 68 1013.9
20260504150110 75 188 3.0 8.0 0.00 0.00 0.00 73 1014.7
20260504081503 59 210 0.0 0.0 0.00 0.00 0.00 84 1014.9
20260504080116 59 210 0.0 0.0 0.00 0.00 0.00 83 1015.3